Starlink 5969

operational
NORAD ID: 55993 Int'l Des: 2023-042 Owner: SPXS Country: US Constellation: starlink
LEOCIRCULAR

Über Starlink 5969

Beschreibung wird geladen...

Live-Position

3D-Globus wird geladen...

Nächste Überflüge

Höhenverlauf

Altitude vs Time

uPlot chart will show altitude changes over time

Zweizeiliger Elementsatz

1 55993U 23042H 25348.83897471 -.00000936 00000-0 -54242-4 0 9992
2 55993 43.0018 157.4234 0001230 267.6861 92.3841 15.02533976150146
Epoch: 14. Dez. 2025 • Age: 17 hours

Aktueller Status

Höhe 565.6 km
Geschwindigkeit 7.58 km/s
Subsatellitenpunkt -27.49°S, 167.14°W
Startdatum 24. März 2023
Alter 2.7 years
Typ internet

Technische Details

Klassifizierung Payload
Masse 305.00 kg
Trockenmasse 290.00 kg
Gesamtmasse 305.00 kg
Länge 0.20 m
Durchmesser 2.80 m
Spannweite 9.00 m
Form Box + pan
Hersteller SPXS
Bus-Typ Starlink
Phasenstatus In Orbit
Besitzer/Staat SPXS/US

Große Konstellationen

Loading constellations...